User: anonymous   Login
Location: Unspecified
(0.0000°N, 0.0000°E)
Time: 16:36:58
(UTC+00:00)
Language:

COSMOS 2489 - Orbit

View from above orbital plane
View from above orbital plane
View from above satellite
View from above satellite

Ground track
Ground track

The orbit data is extracted from the following two-line orbital elements,

1 39484U 13076B   17204.93275069 +.00000010 +00000-0 +00000-0 0  9991
2 39484 082.4864 034.6439 0022099 343.1170 016.9176 12.42878945162382
Epoch (UTC): 23 July 2017 22:23:09
Eccentricity: 0.0022099
inclination: 82.4864°
perigee height: 1477 km
apogee height: 1512 km
right ascension of ascending node: 34.6439°
argument of perigee: 343.1170°
revolutions per day: 12.42878945
mean anomaly at epoch: 16.9176°
orbit number at epoch: 16238

The dashed part of the orbit path shows where the satellite is in the earth's shadow,  

DLR